Regional Weather Roundup
Issued by NWS

Home | Current Version | Previous Version | Text Only | Print | Product List | Glossary On
Versions: 1 2 3 4 5 6 7 8 9 10 11 12 13 14 15 16 17 18 19 20 21 22 23 24 25 26 27 28 29 30 31 32 33 34 35 36 37 38 39 40 41 42 43 44 45 46 47 48 49 50
000
ASUS44 KBMX 280310
RWRAL

ALABAMA REGIONAL WEATHER ROUNDUP
NATIONAL WEATHER SERVICE BIRMINGHAM AL
1000 PM CDT MON MAR 27 2017

NOTE: "FAIR" INDICATES FEW OR NO CLOUDS BELOW 12,000 FEET
WITH NO SIGNIFICANT WEATHER AND/OR OBSTRUCTIONS TO VISIBILITY.

THE REMARK "TC" DENOTES TEMPERATURE IN DEGREES CELSIUS.

ALZ001>011-014-016>018-020-280400-
NORTH ALABAMA

CITY           SKY/WX    TMP DP  RH WIND       PRES   REMARKS
MUSCLE SHOALS  TSTM      61  59  93 SE10      29.91R FOG
HUNTSVILLE     CLOUDY    63  62  97 NE7       29.90R THUNDER
DECATUR        CLOUDY    63  61  93 N13       29.91R THUNDER
HALEYVILLE     FAIR      65  59  81 S12       29.90R
GADSDEN        CLOUDY    64  61  90 SE3       29.95R
$$

ALZ012-013-022-023-030>036-040>044-280400-
WEST CENTRAL ALABAMA

CITY           SKY/WX    TMP DP  RH WIND       PRES   REMARKS
TUSCALOOSA     CLOUDY    66  63  90 S6        29.93R
$$

ALZ015-024>027-033>036-040>044-280400-
CENTRAL ALABAMA

CITY           SKY/WX    TMP DP  RH WIND       PRES   REMARKS
BIRMINGHAM     PTCLDY    67  62  84 S9        29.95S
MONTGOMERY     PTCLDY    73  58  59 S9        29.98R
SHELBY CO ARPT CLEAR     65  63  93 S3        29.95R
MAXWELL AFB    MOCLDY    73  60  65 S9        29.96F
GREENVILLE     FAIR      69  59  70 S7        29.99S
$$

ALZ019-021-028-029-037-038-045>048-280400-
EAST CENTRAL ALABAMA

CITY           SKY/WX    TMP DP  RH WIND       PRES   REMARKS
ANNISTON       CLOUDY    65  62  90 SW6       29.96S
ALEXANDER CITY LGT RAIN  67  62  84 SW5       29.99R
AUBURN         CLOUDY    71  57  61 SW13      30.00R
$$

ALZ051>064-280400-
SOUTHWEST ALABAMA

CITY           SKY/WX    TMP DP  RH WIND       PRES   REMARKS
MOBILE         CLOUDY    70  66  87 S7        30.00R
BROOKLEY FIELD CLOUDY    73  70  90 S8        30.01R
EVERGREEN      PTCLDY    67  62  84 S6        30.01R
$$

ALZ049-050-065>069-280400-
SOUTHEAST ALABAMA

CITY           SKY/WX    TMP DP  RH WIND       PRES   REMARKS
DOTHAN         MOCLDY    68  61  78 SW12      30.05R
OZARK          MOCLDY    67  62  83 S7        30.01R
TROY           MOCLDY    69  61  75 S9        30.01R
EUFAULA        FAIR      72  56  57 SW6       30.00R
$$



USA.gov is the U.S. government's official web portal to all federal, state and local government web resources and services.